| time (UTC) | temp F | wind direction | speed knots | gust knots | rain 1hr in | rain 24hr in | rain mn in | humidity % | barometer mb |
| 20260508025906 | 43 | 180 | 2.6 | 3.5 | 0.00 | 0.00 | 0.00 | 68 | 1016.0 |
| 20260508024928 | 43 | 90 | 1.7 | 2.6 | 0.00 | 0.00 | 0.00 | 69 | 1016.1 |
| 20260508023903 | 43 | 90 | 1.7 | 2.6 | 0.00 | 0.00 | 0.00 | 70 | 1016.2 |
| 20260508022858 | 43 | 135 | 2.6 | 3.5 | 0.00 | 0.00 | 0.00 | 70 | 1016.3 |
| 20260508021855 | 43 | 90 | 1.7 | 2.6 | 0.00 | 0.00 | 0.00 | 69 | 1016.4 |
| 20260508020846 | 43 | 135 | 1.7 | 1.7 | 0.00 | 0.00 | 0.00 | 68 | 1016.3 |
| 20260508015841 | 43 | 180 | 1.7 | 2.6 | 0.00 | 0.00 | 0.00 | 67 | 1016.3 |
| 20260508014836 | 43 | 180 | 2.6 | 3.5 | 0.00 | 0.00 | 0.00 | 67 | 1016.6 |
| 20260508013835 | 44 | 90 | 3.5 | 5.2 | 0.00 | 0.00 | 0.00 | 67 | 1016.6 |
| 20260508012851 | 44 | 135 | 1.7 | 2.6 | 0.00 | 0.00 | 0.00 | 67 | 1016.5 |
| 20260508011826 | 44 | 90 | 3.5 | 7.0 | 0.00 | 0.00 | 0.00 | 67 | 1016.4 |
| 20260508010821 | 44 | 135 | 2.6 | 3.5 | 0.00 | 0.00 | 0.00 | 65 | 1016.6 |
| 20260508005814 | 44 | 135 | 2.6 | 3.5 | 0.00 | 0.00 | 0.00 | 64 | 1016.4 |
| 20260508004813 | 44 | 90 | 7.0 | 7.8 | 0.00 | 0.01 | 0.00 | 64 | 1016.4 |
| 20260508003812 | 44 | 90 | 5.2 | 7.8 | 0.00 | 0.01 | 0.00 | 65 | 1016.6 |
| 20260508002827 | 44 | 68 | 5.2 | 7.0 | 0.00 | 0.01 | 0.00 | 67 | 1016.8 |
| 20260508001804 | 43 | 90 | 3.5 | 5.2 | 0.00 | 0.01 | 0.00 | 68 | 1016.7 |
| 20260508000759 | 43 | 68 | 3.5 | 6.1 | 0.00 | 0.01 | 0.00 | 68 | 1016.7 |
| 20260507235757 | 43 | 90 | 3.5 | 5.2 | 0.00 | 0.01 | 0.00 | 70 | 1016.8 |
| 20260507234813 | 42 | 90 | 4.3 | 5.2 | 0.00 | 0.01 | 0.00 | 70 | 1016.7 |
| 20260507233749 | 43 | 135 | 3.5 | 4.3 | 0.00 | 0.01 | 0.00 | 70 | 1016.9 |
| 20260507232808 | 43 | 135 | 3.5 | 4.3 | 0.00 | 0.01 | 0.00 | 69 | 1016.9 |
| 20260507231738 | 43 | 90 | 2.6 | 3.5 | 0.00 | 0.01 | 0.00 | 69 | 1017.0 |
| 20260507230733 | 43 | 135 | 2.6 | 3.5 | 0.00 | 0.01 | 0.00 | 68 | 1016.7 |
| 20260507225731 | 43 | 90 | 1.7 | 1.7 | 0.00 | 0.02 | 0.00 | 68 | 1016.9 |
| 20260507224727 | 43 | 90 | 1.7 | 1.7 | 0.00 | 0.05 | 0.00 | 67 | 1016.9 |
| 20260507223738 | 44 | 180 | 1.7 | 2.6 | 0.00 | 0.06 | 0.00 | 67 | 1017.1 |
| 20260507222714 | 44 | 135 | 4.3 | 5.2 | 0.00 | 0.08 | 0.00 | 66 | 1017.0 |
| 20260507221715 | 44 | 90 | 3.5 | 3.5 | 0.00 | 0.08 | 0.00 | 65 | 1017.1 |
| 20260507220711 | 44 | 90 | 4.3 | 6.1 | 0.00 | 0.09 | 0.00 | 65 | 1017.1 |
| 20260507215707 | 44 | 90 | 5.2 | 7.0 | 0.00 | 0.09 | 0.09 | 64 | 1017.2 |
| 20260507214804 | 44 | 90 | 4.3 | 7.0 | 0.00 | 0.11 | 0.09 | 63 | 1017.0 |
| 20260507213758 | 44 | 135 | 4.3 | 5.2 | 0.00 | 0.12 | 0.09 | 63 | 1017.3 |
| 20260507212752 | 44 | 90 | 3.5 | 3.5 | 0.00 | 0.14 | 0.09 | 62 | 1017.5 |
| 20260507211748 | 45 | 135 | 3.5 | 3.5 | 0.00 | 0.14 | 0.09 | 62 | 1017.6 |
| 20260507210744 | 45 | 68 | 3.5 | 4.3 | 0.00 | 0.14 | 0.09 | 61 | 1017.6 |
| 20260507205739 | 45 | 90 | 3.5 | 5.2 | 0.00 | 0.14 | 0.09 | 61 | 1017.3 |
| 20260507204733 | 46 | 90 | 3.5 | 5.2 | 0.00 | 0.14 | 0.09 | 56 | 1017.4 |
| 20260507203817 | 46 | 135 | 3.5 | 5.2 | 0.00 | 0.14 | 0.09 | 55 | 1017.5 |
| 20260507202727 | 46 | 90 | 3.5 | 5.2 | 0.00 | 0.14 | 0.09 | 54 | 1017.4 |
| 20260507201722 | 47 | 135 | 5.2 | 6.1 | 0.00 | 0.14 | 0.09 | 53 | 1017.2 |
| 20260507200716 | 47 | 45 | 5.2 | 7.0 | 0.00 | 0.14 | 0.09 | 52 | 1017.3 |
| 20260507195713 | 48 | 90 | 3.5 | 4.3 | 0.00 | 0.14 | 0.09 | 51 | 1017.1 |
| 20260507194711 | 49 | 90 | 3.5 | 4.3 | 0.00 | 0.14 | 0.09 | 51 | 1017.3 |
| 20260507193727 | 49 | 135 | 3.5 | 5.2 | 0.00 | 0.14 | 0.09 | 50 | 1017.4 |
| 20260507192804 | 50 | 90 | 3.5 | 4.3 | 0.00 | 0.14 | 0.09 | 50 | 1017.4 |
| 20260507191759 | 51 | 90 | 3.5 | 5.2 | 0.00 | 0.14 | 0.09 | 48 | 1017.3 |
| 20260507190755 | 53 | 90 | 3.5 | 4.3 | 0.00 | 0.14 | 0.09 | 45 | 1017.3 |
| 20260507185750 | 54 | 90 | 1.7 | 2.6 | 0.00 | 0.14 | 0.09 | 44 | 1017.3 |
| 20260507184743 | 56 | 90 | 3.5 | 4.3 | 0.00 | 0.14 | 0.09 | 41 | 1017.2 |
| 20260507183739 | 56 | 90 | 3.5 | 4.3 | 0.00 | 0.14 | 0.09 | 42 | 1017.2 |
| 20260507182734 | 56 | 90 | 2.6 | 3.5 | 0.00 | 0.14 | 0.09 | 43 | 1017.1 |
| 20260507181730 | 55 | 90 | 1.7 | 1.7 | 0.00 | 0.14 | 0.09 | 46 | 1017.1 |
| 20260507180725 | 54 | 270 | 1.7 | 1.7 | 0.00 | 0.14 | 0.09 | 51 | 1017.2 |
| 20260507175718 | 55 | 248 | 3.5 | 5.2 | 0.00 | 0.14 | 0.09 | 46 | 1017.1 |
| 20260507174736 | 55 | 270 | 1.7 | 3.5 | 0.00 | 0.14 | 0.09 | 45 | 1017.2 |
| 20260507173715 | 54 | 23 | 1.7 | 2.6 | 0.00 | 0.14 | 0.09 | 50 | 1017.2 |
| 20260507172712 | 55 | 315 | 4.3 | 6.1 | 0.00 | 0.14 | 0.09 | 44 | 1017.1 |
| 20260507171707 | 55 | 270 | 1.7 | 3.5 | 0.00 | 0.14 | 0.09 | 44 | 1017.1 |
| 20260507170725 | 56 | 0 | 2.6 | 3.5 | 0.00 | 0.14 | 0.09 | 43 | 1017.4 |
| 20260507165722 | 57 | 0 | 1.7 | 3.5 | 0.00 | 0.14 | 0.09 | 41 | 1017.5 |
| 20260507164653 | 57 | 315 | 3.5 | 3.5 | 0.00 | 0.14 | 0.09 | 41 | 1017.5 |
| 20260507163649 | 57 | 0 | 3.5 | 6.1 | 0.00 | 0.14 | 0.09 | 41 | 1017.3 |
| 20260507162725 | 58 | 0 | 4.3 | 6.1 | 0.00 | 0.14 | 0.09 | 41 | 1017.2 |
| 20260507161700 | 56 | 315 | 3.5 | 4.3 | 0.00 | 0.14 | 0.09 | 41 | 1017.3 |
| 20260507160637 | 56 | 315 | 4.3 | 5.2 | 0.00 | 0.14 | 0.09 | 41 | 1017.5 |
| 20260507155630 | 56 | 270 | 6.1 | 7.0 | 0.00 | 0.14 | 0.09 | 42 | 1017.4 |
| 20260507154625 | 55 | 0 | 4.3 | 5.2 | 0.00 | 0.14 | 0.09 | 43 | 1017.4 |
| 20260507153625 | 54 | 315 | 7.0 | 7.8 | 0.00 | 0.14 | 0.09 | 50 | 1017.3 |
| 20260507152620 | 54 | 0 | 4.3 | 6.1 | 0.00 | 0.14 | 0.09 | 49 | 1017.4 |
| 20260507151613 | 55 | 315 | 4.3 | 7.0 | 0.00 | 0.14 | 0.09 | 45 | 1017.6 |
| 20260507150611 | 55 | 315 | 6.1 | 7.8 | 0.00 | 0.14 | 0.09 | 45 | 1017.7 |
| 20260507145609 | 56 | 315 | 4.3 | 6.1 | 0.00 | 0.14 | 0.09 | 43 | 1017.5 |
| 20260507144604 | 55 | 315 | 3.5 | 6.1 | 0.00 | 0.14 | 0.09 | 43 | 1017.5 |
| 20260507143603 | 55 | 0 | 2.6 | 3.5 | 0.00 | 0.14 | 0.09 | 41 | 1017.6 |
| 20260507142616 | 56 | 270 | 2.6 | 3.5 | 0.00 | 0.14 | 0.09 | 40 | 1017.5 |
| 20260507141550 | 56 | 270 | 2.6 | 3.5 | 0.00 | 0.14 | 0.09 | 40 | 1017.6 |
| 20260507140546 | 55 | 180 | 1.7 | 2.6 | 0.00 | 0.14 | 0.09 | 40 | 1017.8 |
| 20260507135538 | 55 | 293 | 3.5 | 4.3 | 0.00 | 0.14 | 0.09 | 40 | 1017.6 |
| 20260507134613 | 57 | 270 | 3.5 | 3.5 | 0.00 | 0.14 | 0.09 | 40 | 1017.7 |
| 20260507133534 | 57 | 180 | 4.3 | 6.1 | 0.00 | 0.14 | 0.09 | 41 | 1017.5 |
| 20260507132529 | 56 | 315 | 1.7 | 3.5 | 0.00 | 0.14 | 0.09 | 41 | 1017.4 |
| 20260507131522 | 55 | 180 | 3.5 | 6.1 | 0.00 | 0.14 | 0.09 | 41 | 1017.7 |
| 20260507130520 | 55 | 135 | 4.3 | 6.1 | 0.00 | 0.14 | 0.09 | 43 | 1017.6 |
| 20260507125514 | 53 | 270 | 6.1 | 7.8 | 0.00 | 0.14 | 0.09 | 47 | 1017.7 |
| 20260507124511 | 53 | 270 | 3.5 | 4.3 | 0.00 | 0.14 | 0.09 | 46 | 1017.7 |
| 20260507123508 | 53 | 270 | 3.5 | 5.2 | 0.00 | 0.14 | 0.09 | 48 | 1017.6 |
| 20260507122505 | 52 | 135 | 3.5 | 5.2 | 0.00 | 0.14 | 0.09 | 48 | 1018.0 |
| 20260507121623 | 52 | 225 | 3.5 | 4.3 | 0.00 | 0.14 | 0.09 | 48 | 1017.7 |
| 20260507120601 | 50 | 225 | 2.6 | 3.5 | 0.00 | 0.14 | 0.09 | 50 | 1017.7 |
| 20260507115552 | 51 | 248 | 5.2 | 7.0 | 0.00 | 0.14 | 0.09 | 48 | 1017.7 |
| 20260507114547 | 51 | 248 | 3.5 | 5.2 | 0.00 | 0.14 | 0.09 | 50 | 1017.8 |
| 20260507113546 | 51 | 225 | 3.5 | 6.1 | 0.00 | 0.14 | 0.09 | 49 | 1017.5 |
| 20260507112539 | 50 | 270 | 3.5 | 5.2 | 0.00 | 0.14 | 0.09 | 50 | 1017.7 |
| 20260507111536 | 50 | 225 | 2.6 | 3.5 | 0.00 | 0.14 | 0.09 | 50 | 1017.6 |
| 20260507110528 | 51 | 45 | 1.7 | 3.5 | 0.00 | 0.14 | 0.09 | 49 | 1017.8 |
| 20260507105550 | 51 | 180 | 7.0 | 7.8 | 0.00 | 0.14 | 0.09 | 50 | 1017.4 |
| 20260507104542 | 50 | 225 | 6.1 | 7.8 | 0.00 | 0.14 | 0.09 | 51 | 1017.4 |
| 20260507103516 | 51 | 135 | 5.2 | 7.0 | 0.00 | 0.14 | 0.09 | 51 | 1017.4 |
| 20260507102512 | 51 | 180 | 6.1 | 7.0 | 0.00 | 0.14 | 0.09 | 51 | 1017.4 |
| 20260507101532 | 51 | 225 | 5.2 | 7.0 | 0.00 | 0.14 | 0.09 | 52 | 1017.3 |
| 20260507100506 | 51 | 315 | 4.3 | 6.1 | 0.00 | 0.14 | 0.09 | 52 | 1017.2 |
| 20260507095503 | 50 | 270 | 5.2 | 8.7 | 0.00 | 0.14 | 0.09 | 53 | 1017.3 |
| 20260507094501 | 50 | 248 | 7.8 | 9.6 | 0.00 | 0.14 | 0.09 | 55 | 1017.0 |
| 20260507093453 | 49 | 270 | 5.2 | 7.8 | 0.00 | 0.14 | 0.09 | 55 | 1017.1 |
| 20260507092447 | 50 | 225 | 7.8 | 9.6 | 0.00 | 0.14 | 0.09 | 57 | 1016.9 |
| 20260507091443 | 50 | 203 | 3.5 | 5.2 | 0.00 | 0.14 | 0.09 | 59 | 1017.0 |
| 20260507090439 | 49 | 180 | 7.0 | 9.6 | 0.00 | 0.14 | 0.09 | 59 | 1017.1 |
| 20260507085436 | 48 | 225 | 5.2 | 6.1 | 0.00 | 0.14 | 0.09 | 60 | 1017.2 |
| 20260507084452 | 48 | 225 | 4.3 | 6.1 | 0.00 | 0.14 | 0.09 | 61 | 1016.9 |
| 20260507083427 | 47 | 135 | 6.1 | 8.7 | 0.00 | 0.14 | 0.09 | 62 | 1016.8 |
| 20260507082422 | 47 | 45 | 3.5 | 6.1 | 0.00 | 0.14 | 0.09 | 62 | 1016.8 |
| 20260507081416 | 46 | 270 | 3.5 | 5.2 | 0.00 | 0.15 | 0.09 | 62 | 1016.9 |
| 20260507080415 | 46 | 225 | 7.0 | 7.8 | 0.00 | 0.17 | 0.09 | 63 | 1016.6 |
| 20260507075412 | 46 | 225 | 4.3 | 5.2 | 0.00 | 0.18 | 0.09 | 63 | 1016.5 |
| 20260507074408 | 45 | 225 | 3.5 | 6.1 | 0.00 | 0.19 | 0.09 | 69 | 1016.3 |
| 20260507073403 | 45 | 180 | 4.3 | 6.1 | 0.00 | 0.19 | 0.09 | 70 | 1016.4 |
| 20260507072358 | 45 | 180 | 6.1 | 7.0 | 0.00 | 0.19 | 0.09 | 71 | 1016.3 |
| 20260507071354 | 44 | 180 | 3.5 | 6.1 | 0.00 | 0.19 | 0.09 | 72 | 1016.2 |
| 20260507070351 | 44 | 225 | 3.5 | 6.1 | 0.00 | 0.19 | 0.09 | 75 | 1016.1 |
| 20260507065346 | 43 | 270 | 5.2 | 7.0 | 0.00 | 0.19 | 0.09 | 78 | 1016.0 |
| 20260507064342 | 42 | 180 | 5.2 | 7.0 | 0.00 | 0.19 | 0.09 | 80 | 1016.0 |
| 20260507063332 | 42 | 180 | 3.5 | 5.2 | 0.00 | 0.19 | 0.09 | 81 | 1016.0 |
| 20260507062351 | 41 | 135 | 3.5 | 5.2 | 0.00 | 0.19 | 0.09 | 81 | 1016.2 |
| 20260507061328 | 41 | 225 | 3.5 | 5.2 | 0.00 | 0.19 | 0.09 | 82 | 1016.2 |
| 20260507060344 | 41 | 270 | 4.3 | 7.0 | 0.00 | 0.19 | 0.09 | 82 | 1015.9 |
| 20260507055319 | 40 | 180 | 3.5 | 6.1 | 0.00 | 0.19 | 0.09 | 82 | 1015.9 |
| 20260507054356 | 40 | 225 | 7.0 | 9.6 | 0.00 | 0.19 | 0.09 | 82 | 1015.9 |
| 20260507053312 | 40 | 225 | 3.5 | 7.0 | 0.00 | 0.19 | 0.09 | 82 | 1015.6 |
| 20260507052329 | 40 | 270 | 7.0 | 7.8 | 0.00 | 0.20 | 0.09 | 82 | 1015.9 |
| 20260507051304 | 40 | 180 | 4.3 | 7.0 | 0.00 | 0.20 | 0.09 | 82 | 1015.6 |
| 20260507050357 | 40 | 248 | 7.0 | 9.6 | 0.00 | 0.20 | 0.09 | 82 | 1015.4 |
| 20260507045357 | 40 | 180 | 5.2 | 7.8 | 0.00 | 0.20 | 0.09 | 82 | 1015.3 |
| 20260507044350 | 40 | 225 | 5.2 | 7.8 | 0.00 | 0.20 | 0.09 | 82 | 1015.5 |
| 20260507043346 | 40 | 315 | 7.0 | 9.6 | 0.00 | 0.20 | 0.09 | 82 | 1015.3 |
| 20260507042338 | 40 | 180 | 5.2 | 7.0 | 0.00 | 0.20 | 0.09 | 82 | 1015.3 |
| 20260507041339 | 40 | 225 | 4.3 | 6.1 | 0.00 | 0.20 | 0.09 | 82 | 1014.9 |
| 20260507040332 | 40 | 180 | 3.5 | 3.5 | 0.00 | 0.20 | 0.09 | 82 | 1015.0 |
| 20260507035327 | 40 | 180 | 3.5 | 4.3 | 0.00 | 0.20 | 0.09 | 82 | 1014.9 |
| 20260507034320 | 40 | 225 | 4.3 | 6.1 | 0.00 | 0.21 | 0.09 | 82 | 1014.9 |
| 20260507033341 | 40 | 270 | 4.3 | 6.1 | 0.00 | 0.21 | 0.09 | 82 | 1014.9 |
| 20260507032315 | 40 | 225 | 2.6 | 3.5 | 0.00 | 0.21 | 0.09 | 82 | 1015.0 |
| 20260507031312 | 40 | 270 | 6.1 | 7.0 | 0.00 | 0.22 | 0.09 | 82 | 1014.7 |
| 20260507030310 | 40 | 225 | 7.0 | 9.6 | 0.00 | 0.22 | 0.09 | 82 | 1014.9 |